Time,TemperatureF,DewpointF,PressureIn,WindDirection,WindDirectionDegrees,WindSpeedMPH,WindSpeedGustMPH,Humidity,HourlyPrecipIn,Conditions,Clouds,dailyrainin,SoftwareType,DateUTC
2013-02-14 00:00:00,33.1,23.3,29.76,SW,225,8.5,10.5,67,0.00,,CLR,0.00,VWS V14.01,2013-02-14 05:00:00,
2013-02-14 00:02:00,33.1,22.6,29.79,SSW,202,5.8,10.5,65,0.00,,CLR,0.00,VWS V14.01,2013-02-14 05:02:00,
2013-02-14 00:07:00,33.1,23.0,29.79,SSW,202,6.3,10.5,66,0.00,,CLR,0.00,VWS V14.01,2013-02-14 05:07:00,
2013-02-14 00:10:00,33.1,23.0,29.79,SSW,202,6.3,8.5,66,0.00,,CLR,0.00,VWS V14.01,2013-02-14 05:10:00,
2013-02-14 00:15:00,33.1,23.0,29.79,SSW,202,6.0,8.5,66,0.00,,CLR,0.00,VWS V14.01,2013-02-14 05:15:00,
2013-02-14 00:20:00,33.1,23.0,29.79,SSW,202,5.6,8.5,66,0.00,,CLR,0.00,VWS V14.01,2013-02-14 05:20:00,
2013-02-14 00:25:00,32.9,22.8,29.79,SSW,202,10.1,10.1,66,0.00,,CLR,0.00,VWS V14.01,2013-02-14 05:25:00,
2013-02-14 00:30:00,32.9,23.2,29.79,SSW,202,5.8,10.1,67,0.00,,CLR,0.00,VWS V14.01,2013-02-14 05:30:00,
2013-02-14 00:35:00,32.9,23.2,29.79,SSW,202,7.8,10.1,67,0.00,,CLR,0.00,VWS V14.01,2013-02-14 05:35:00,
2013-02-14 00:41:00,32.7,23.3,29.79,South,180,4.9,10.1,68,0.00,,CLR,0.00,VWS V14.01,2013-02-14 05:41:00,
2013-02-14 00:46:00,32.7,23.3,29.79,South,180,6.0,10.1,68,0.00,,CLR,0.00,VWS V14.01,2013-02-14 05:46:00,
2013-02-14 00:51:00,32.5,23.2,29.79,SSW,202,6.3,10.1,68,0.00,,CLR,0.00,VWS V14.01,2013-02-14 05:51:00,
2013-02-14 00:56:00,32.5,23.5,29.79,South,180,3.8,10.1,69,0.00,,CLR,0.00,VWS V14.01,2013-02-14 05:56:00,
2013-02-14 01:00:00,32.4,23.7,29.80,SSW,202,5.4,10.1,70,0.00,,CLR,0.00,VWS V14.01,2013-02-14 06:00:00,
2013-02-14 01:01:00,32.5,23.5,29.79,SSW,202,4.9,10.1,69,0.00,,CLR,0.00,VWS V14.01,2013-02-14 06:01:00,
2013-02-14 01:06:00,32.4,23.7,29.79,SSW,202,4.0,10.1,70,0.00,,CLR,0.00,VWS V14.01,2013-02-14 06:06:00,
2013-02-14 01:11:00,32.4,24.0,29.79,SSW,202,4.9,6.0,71,0.00,,CLR,0.00,VWS V14.01,2013-02-14 06:11:00,
2013-02-14 01:16:00,32.4,24.0,29.79,SSW,202,6.3,7.8,71,0.00,,CLR,0.00,VWS V14.01,2013-02-14 06:16:00,
2013-02-14 01:21:00,32.4,23.7,29.79,SSW,202,6.5,7.8,70,0.00,,CLR,0.00,VWS V14.01,2013-02-14 06:21:00,
2013-02-14 01:26:00,32.4,24.0,29.79,SSW,202,7.6,8.7,71,0.00,,CLR,0.00,VWS V14.01,2013-02-14 06:26:00,
2013-02-14 01:31:00,32.2,24.2,29.79,SSW,202,6.7,8.7,72,0.00,,CLR,0.00,VWS V14.01,2013-02-14 06:31:00,
2013-02-14 01:36:00,32.2,24.2,29.79,SSW,202,6.3,8.7,72,0.00,,CLR,0.00,VWS V14.01,2013-02-14 06:36:00,
2013-02-14 01:41:00,32.0,24.0,29.79,SW,225,6.7,8.7,72,0.00,,CLR,0.00,VWS V14.01,2013-02-14 06:41:00,
2013-02-14 01:46:00,32.0,24.0,29.79,SSW,202,6.5,8.7,72,0.00,,CLR,0.00,VWS V14.01,2013-02-14 06:46:00,
2013-02-14 01:51:00,31.8,24.5,29.79,SSW,202,5.8,8.7,74,0.00,,CLR,0.00,VWS V14.01,2013-02-14 06:51:00,
2013-02-14 01:56:00,31.6,24.3,29.79,SSW,202,5.6,10.1,74,0.00,,CLR,0.00,VWS V14.01,2013-02-14 06:56:00,
2013-02-14 02:00:00,31.6,24.3,29.80,SSW,202,6.5,10.1,74,0.00,,CLR,0.00,VWS V14.01,2013-02-14 07:00:00,
2013-02-14 02:01:00,31.6,24.3,29.79,SW,225,6.5,10.1,74,0.00,,CLR,0.00,VWS V14.01,2013-02-14 07:01:00,
2013-02-14 02:06:00,31.6,24.3,29.79,SSW,202,8.7,10.1,74,0.00,,CLR,0.00,VWS V14.01,2013-02-14 07:06:00,
2013-02-14 02:11:00,31.5,24.5,29.79,SSW,202,10.5,10.7,75,0.00,,CLR,0.00,VWS V14.01,2013-02-14 07:11:00,
2013-02-14 02:16:00,31.3,24.3,29.79,SSW,202,7.4,10.7,75,0.00,,CLR,0.00,VWS V14.01,2013-02-14 07:16:00,
2013-02-14 02:21:00,31.1,24.1,29.79,SSW,202,8.5,10.7,75,0.00,,CLR,0.00,VWS V14.01,2013-02-14 07:21:00,
2013-02-14 02:27:00,31.1,24.4,29.79,SSW,202,6.0,10.7,76,0.00,,CLR,0.00,VWS V14.01,2013-02-14 07:27:00,
2013-02-14 02:32:00,31.1,24.4,29.79,SW,225,4.9,10.7,76,0.00,,CLR,0.00,VWS V14.01,2013-02-14 07:32:00,
2013-02-14 02:37:00,30.9,24.6,29.79,SSW,202,8.1,10.7,77,0.00,,CLR,0.00,VWS V14.01,2013-02-14 07:37:00,
2013-02-14 02:42:00,30.9,24.6,29.79,SSW,202,6.3,10.7,77,0.00,,CLR,0.00,VWS V14.01,2013-02-14 07:42:00,
2013-02-14 02:47:00,30.7,24.7,29.79,SSW,202,4.9,10.7,78,0.00,,CLR,0.00,VWS V14.01,2013-02-14 07:47:00,
2013-02-14 02:52:00,30.7,24.7,29.79,SW,225,5.8,10.7,78,0.00,,CLR,0.00,VWS V14.01,2013-02-14 07:52:00,
2013-02-14 02:57:00,30.6,24.5,29.79,SSW,202,6.0,10.7,78,0.00,,CLR,0.00,VWS V14.01,2013-02-14 07:57:00,
2013-02-14 03:00:00,30.6,24.5,29.80,SSW,202,6.5,10.7,78,0.00,,CLR,0.00,VWS V14.01,2013-02-14 08:00:00,
2013-02-14 03:02:00,30.7,24.7,29.79,SSW,202,5.4,10.7,78,0.00,,CLR,0.00,VWS V14.01,2013-02-14 08:02:00,
2013-02-14 03:07:00,30.6,24.5,29.79,SSW,202,5.8,6.5,78,0.00,,CLR,0.00,VWS V14.01,2013-02-14 08:07:00,
2013-02-14 03:12:00,30.4,24.7,29.79,SSW,202,5.8,7.6,79,0.00,,CLR,0.00,VWS V14.01,2013-02-14 08:12:00,
2013-02-14 03:17:00,30.2,24.5,29.79,SSW,202,6.0,7.6,79,0.00,,CLR,0.00,VWS V14.01,2013-02-14 08:17:00,
2013-02-14 03:22:00,30.2,24.8,29.79,SSW,202,4.9,7.6,80,0.00,,CLR,0.00,VWS V14.01,2013-02-14 08:22:00,
2013-02-14 03:28:00,30.2,24.8,29.79,SSW,202,5.4,7.6,80,0.00,,CLR,0.00,VWS V14.01,2013-02-14 08:28:00,
2013-02-14 03:33:00,30.0,24.9,29.79,SSW,202,5.6,7.6,81,0.00,,CLR,0.00,VWS V14.01,2013-02-14 08:33:00,
2013-02-14 03:38:00,30.0,25.2,29.79,SSW,202,4.0,7.6,82,0.00,,CLR,0.00,VWS V14.01,2013-02-14 08:38:00,
2013-02-14 03:43:00,29.8,25.0,29.79,SSW,202,5.8,7.6,82,0.00,,CLR,0.00,VWS V14.01,2013-02-14 08:43:00,
2013-02-14 03:48:00,30.0,25.2,29.79,SSW,202,6.3,7.6,82,0.00,,CLR,0.00,VWS V14.01,2013-02-14 08:48:00,
2013-02-14 03:53:00,30.0,25.5,29.79,South,180,6.5,7.6,83,0.00,,CLR,0.00,VWS V14.01,2013-02-14 08:53:00,
2013-02-14 03:58:00,30.2,25.7,29.79,SSW,202,5.8,7.6,83,0.00,,CLR,0.00,VWS V14.01,2013-02-14 08:58:00,
2013-02-14 04:00:00,30.4,25.5,29.80,SSW,202,6.5,8.5,82,0.00,,CLR,0.00,VWS V14.01,2013-02-14 09:00:00,
2013-02-14 04:03:00,30.4,25.5,29.79,SSW,202,6.7,8.5,82,0.00,,CLR,0.00,VWS V14.01,2013-02-14 09:03:00,
2013-02-14 04:08:00,30.4,25.5,29.79,SSW,202,6.0,6.5,82,0.00,,CLR,0.00,VWS V14.01,2013-02-14 09:08:00,
2013-02-14 04:13:00,30.4,25.5,29.79,SSW,202,5.6,8.7,82,0.00,,CLR,0.00,VWS V14.01,2013-02-14 09:13:00,
2013-02-14 04:18:00,30.6,25.7,29.79,SSW,202,7.6,8.7,82,0.00,,CLR,0.00,VWS V14.01,2013-02-14 09:18:00,
2013-02-14 04:23:00,30.6,25.7,29.79,SSW,202,7.8,9.2,82,0.00,,CLR,0.00,VWS V14.01,2013-02-14 09:23:00,
2013-02-14 04:28:00,30.7,25.6,29.79,SSW,202,6.0,9.2,81,0.00,,CLR,0.00,VWS V14.01,2013-02-14 09:28:00,
2013-02-14 04:33:00,30.9,25.5,29.76,SSW,202,8.5,9.2,80,0.00,,CLR,0.00,VWS V14.01,2013-02-14 09:33:00,
2013-02-14 04:39:00,30.9,25.5,29.76,SSW,202,8.1,9.2,80,0.00,,CLR,0.00,VWS V14.01,2013-02-14 09:39:00,
2013-02-14 04:44:00,30.9,25.8,29.76,SSW,202,6.0,9.2,81,0.00,,CLR,0.00,VWS V14.01,2013-02-14 09:44:00,
2013-02-14 04:49:00,30.9,25.8,29.79,South,180,6.0,9.2,81,0.00,,CLR,0.00,VWS V14.01,2013-02-14 09:49:00,
2013-02-14 04:54:00,30.7,25.6,29.79,South,180,7.8,9.2,81,0.00,,CLR,0.00,VWS V14.01,2013-02-14 09:54:00,
2013-02-14 04:59:00,30.7,25.6,29.79,SSW,202,7.4,9.2,81,0.00,,CLR,0.00,VWS V14.01,2013-02-14 09:59:00,
2013-02-14 05:00:00,30.9,26.4,29.80,SW,225,4.3,9.2,83,0.00,,CLR,0.00,VWS V14.01,2013-02-14 10:00:00,
2013-02-14 05:04:00,30.7,25.6,29.79,SSW,202,5.4,9.2,81,0.00,,CLR,0.00,VWS V14.01,2013-02-14 10:04:00,
2013-02-14 05:09:00,30.6,25.4,29.79,South,180,6.5,9.2,81,0.00,,CLR,0.00,VWS V14.01,2013-02-14 10:09:00,
2013-02-14 05:14:00,30.6,25.4,29.79,SSW,202,5.4,9.2,81,0.00,,CLR,0.00,VWS V14.01,2013-02-14 10:14:00,
2013-02-14 05:19:00,30.4,25.3,29.79,SSW,202,4.9,9.2,81,0.00,,CLR,0.00,VWS V14.01,2013-02-14 10:19:00,
2013-02-14 05:24:00,30.4,25.5,29.79,SSW,202,6.7,9.2,82,0.00,,CLR,0.00,VWS V14.01,2013-02-14 10:24:00,
2013-02-14 05:29:00,30.4,25.5,29.79,SSW,202,7.6,9.2,82,0.00,,CLR,0.00,VWS V14.01,2013-02-14 10:29:00,
2013-02-14 05:34:00,30.4,25.9,29.79,SSW,202,5.4,9.2,83,0.00,,CLR,0.00,VWS V14.01,2013-02-14 10:34:00,
2013-02-14 05:39:00,30.4,25.9,29.79,SW,225,5.6,9.2,83,0.00,,CLR,0.00,VWS V14.01,2013-02-14 10:39:00,
2013-02-14 05:44:00,30.6,26.3,29.79,SSW,202,8.1,9.2,84,0.00,,CLR,0.00,VWS V14.01,2013-02-14 10:44:00,
2013-02-14 05:49:00,30.7,26.5,29.79,South,180,5.6,9.2,84,0.00,,CLR,0.00,VWS V14.01,2013-02-14 10:49:00,
2013-02-14 05:54:00,30.9,26.4,29.79,SSW,202,4.9,9.2,83,0.00,,CLR,0.00,VWS V14.01,2013-02-14 10:54:00,
2013-02-14 05:59:00,30.9,26.4,29.79,SSW,202,3.8,9.2,83,0.00,,CLR,0.00,VWS V14.01,2013-02-14 10:59:00,
2013-02-14 06:00:00,30.9,26.4,29.80,SW,225,4.3,9.2,83,0.00,,CLR,0.00,VWS V14.01,2013-02-14 11:00:00,
2013-02-14 06:04:00,30.9,26.4,29.79,SSW,202,5.6,9.2,83,0.00,,CLR,0.00,VWS V14.01,2013-02-14 11:04:00,
2013-02-14 06:10:00,30.9,26.4,29.79,SSW,202,5.4,6.7,83,0.00,,CLR,0.00,VWS V14.01,2013-02-14 11:10:00,
2013-02-14 06:15:00,31.1,26.8,29.79,SSW,202,5.6,9.6,84,0.00,,CLR,0.00,VWS V14.01,2013-02-14 11:15:00,
2013-02-14 06:20:00,31.1,26.8,29.76,South,180,4.9,9.6,84,0.00,,CLR,0.00,VWS V14.01,2013-02-14 11:20:00,
2013-02-14 06:25:00,31.1,26.8,29.76,SSW,202,4.9,9.6,84,0.00,,CLR,0.00,VWS V14.01,2013-02-14 11:25:00,
2013-02-14 06:30:00,30.9,26.7,29.76,SSW,202,5.4,9.6,84,0.00,,CLR,0.00,VWS V14.01,2013-02-14 11:30:00,
2013-02-14 06:35:00,30.9,26.7,29.76,South,180,5.6,9.6,84,0.00,,CLR,0.00,VWS V14.01,2013-02-14 11:35:00,
2013-02-14 06:40:00,30.9,26.7,29.76,SSW,202,3.8,9.6,84,0.00,,CLR,0.00,VWS V14.01,2013-02-14 11:40:00,
2013-02-14 06:45:00,30.9,26.7,29.76,South,180,6.0,9.6,84,0.00,,CLR,0.00,VWS V14.01,2013-02-14 11:45:00,
2013-02-14 06:50:00,30.9,26.7,29.76,SSE,158,6.0,9.6,84,0.00,,CLR,0.00,VWS V14.01,2013-02-14 11:50:00,
2013-02-14 06:55:00,30.7,26.5,29.76,South,180,4.3,9.6,84,0.00,,CLR,0.00,VWS V14.01,2013-02-14 11:55:00,
2013-02-14 07:00:00,30.7,26.5,29.76,South,180,4.3,9.6,84,0.00,,CLR,0.00,VWS V14.01,2013-02-14 12:00:00,
2013-02-14 07:05:00,30.7,26.8,29.76,SSW,202,5.8,9.6,85,0.00,,CLR,0.00,VWS V14.01,2013-02-14 12:05:00,
2013-02-14 07:10:00,30.7,26.8,29.76,SSE,158,5.8,6.5,85,0.00,,CLR,0.00,VWS V14.01,2013-02-14 12:10:00,
2013-02-14 07:15:00,30.7,26.8,29.76,South,180,5.6,8.7,85,0.00,,CLR,0.00,VWS V14.01,2013-02-14 12:15:00,
2013-02-14 07:19:00,32.4,28.4,29.80,SSW,202,4.0,4.0,85,0.00,,CLR,0.00,VWS V14.01,2013-02-14 12:19:00,
2013-02-14 07:20:00,30.7,26.8,29.76,South,180,6.0,8.7,85,0.00,,CLR,0.00,VWS V14.01,2013-02-14 12:20:00,
2013-02-14 07:24:00,32.5,28.2,29.80,SSW,202,6.3,6.3,84,0.00,,CLR,0.00,VWS V14.01,2013-02-14 12:24:00,
2013-02-14 07:25:00,30.9,27.2,29.76,SSW,202,4.9,8.7,86,0.00,,CLR,0.00,VWS V14.01,2013-02-14 12:25:00,
2013-02-14 07:31:00,30.9,27.2,29.76,South,180,4.5,8.7,86,0.00,,CLR,0.00,VWS V14.01,2013-02-14 12:31:00,
2013-02-14 07:36:00,30.9,27.2,29.76,South,180,5.6,8.7,86,0.00,,CLR,0.00,VWS V14.01,2013-02-14 12:36:00,
2013-02-14 07:41:00,31.1,27.4,29.76,SSW,202,4.9,8.7,86,0.00,,CLR,0.00,VWS V14.01,2013-02-14 12:41:00,
2013-02-14 07:46:00,31.1,27.4,29.76,SSW,202,5.8,8.7,86,0.00,,CLR,0.00,VWS V14.01,2013-02-14 12:46:00,
2013-02-14 07:51:00,31.1,27.4,29.76,South,180,5.4,8.7,86,0.00,,CLR,0.00,VWS V14.01,2013-02-14 12:51:00,
2013-02-14 07:56:00,31.3,27.6,29.76,South,180,5.4,8.7,86,0.00,,CLR,0.00,VWS V14.01,2013-02-14 12:56:00,
2013-02-14 08:00:00,31.6,27.7,29.76,South,180,4.9,8.7,85,0.00,,CLR,0.00,VWS V14.01,2013-02-14 13:00:00,
2013-02-14 08:01:00,31.5,27.8,29.76,South,180,7.2,8.7,86,0.00,,CLR,0.00,VWS V14.01,2013-02-14 13:01:00,
2013-02-14 08:06:00,31.6,27.7,29.76,South,180,6.3,8.7,85,0.00,,CLR,0.00,VWS V14.01,2013-02-14 13:06:00,
2013-02-14 08:11:00,31.6,27.7,29.76,South,180,3.8,6.3,85,0.00,,CLR,0.00,VWS V14.01,2013-02-14 13:11:00,
2013-02-14 08:16:00,32.0,28.0,29.76,South,180,6.0,6.5,85,0.00,,CLR,0.00,VWS V14.01,2013-02-14 13:16:00,
2013-02-14 08:19:00,32.4,28.4,29.79,SSW,202,4.0,4.0,85,0.00,,CLR,0.00,VWS V14.01,2013-02-14 13:19:00,
2013-02-14 08:21:00,32.2,28.2,29.79,SSW,202,6.3,7.2,85,0.00,,CLR,0.00,VWS V14.01,2013-02-14 13:21:00,
2013-02-14 08:24:00,32.5,28.2,29.79,SSW,202,6.3,6.3,84,0.00,,CLR,0.00,VWS V14.01,2013-02-14 13:24:00,
2013-02-14 08:34:00,32.5,28.2,29.79,SSW,202,6.0,8.7,84,0.00,,CLR,0.00,VWS V14.01,2013-02-14 13:34:00,
2013-02-14 08:37:00,34.0,29.7,29.76,South,180,7.8,7.8,84,0.00,,CLR,0.00,VWS V14.01,2013-02-14 13:37:00,
2013-02-14 08:39:00,33.1,28.5,29.79,SSW,202,6.5,10.7,83,0.00,,CLR,0.00,VWS V14.01,2013-02-14 13:39:00,
2013-02-14 08:42:00,34.0,30.0,29.76,South,180,5.8,7.8,85,0.00,,CLR,0.00,VWS V14.01,2013-02-14 13:42:00,
2013-02-14 08:44:00,33.3,28.7,29.79,South,180,5.8,10.7,83,0.00,,CLR,0.00,VWS V14.01,2013-02-14 13:44:00,
2013-02-14 08:49:00,33.6,28.7,29.76,South,180,6.3,10.7,82,0.00,,CLR,0.00,VWS V14.01,2013-02-14 13:49:00,
2013-02-14 08:53:00,34.2,30.4,29.76,SSW,202,5.4,5.4,86,0.00,,CLR,0.00,VWS V14.01,2013-02-14 13:53:00,
2013-02-14 08:55:00,33.6,28.4,29.76,South,180,5.4,10.7,81,0.00,,CLR,0.00,VWS V14.01,2013-02-14 13:55:00,
2013-02-14 08:58:00,34.2,30.4,29.76,SSE,158,6.0,6.0,86,0.00,,CLR,0.00,VWS V14.01,2013-02-14 13:58:00,
2013-02-14 09:00:00,33.8,28.3,29.76,SSW,202,8.7,10.7,80,0.00,,CLR,0.00,VWS V14.01,2013-02-14 14:00:00,
2013-02-14 09:05:00,34.2,28.3,29.79,South,180,6.5,10.7,79,0.00,,CLR,0.00,VWS V14.01,2013-02-14 14:05:00,
2013-02-14 09:10:00,34.2,28.3,29.79,SSW,202,7.6,7.6,79,0.00,,CLR,0.00,VWS V14.01,2013-02-14 14:10:00,
2013-02-14 09:15:00,34.2,28.3,29.79,SSW,202,6.7,10.7,79,0.00,,CLR,0.00,VWS V14.01,2013-02-14 14:15:00,
2013-02-14 09:20:00,34.2,28.3,29.76,SSW,202,7.6,10.7,79,0.00,,CLR,0.00,VWS V14.01,2013-02-14 14:20:00,
2013-02-14 09:25:00,34.0,28.2,29.76,South,180,9.8,10.7,79,0.00,,CLR,0.00,VWS V14.01,2013-02-14 14:25:00,
2013-02-14 09:30:00,34.0,28.5,29.76,South,180,9.4,11.9,80,0.00,,CLR,0.00,VWS V14.01,2013-02-14 14:30:00,
2013-02-14 09:35:00,34.0,28.8,29.76,SSW,202,8.5,11.9,81,0.00,,CLR,0.00,VWS V14.01,2013-02-14 14:35:00,
2013-02-14 09:37:00,34.0,29.7,29.76,South,180,7.8,7.8,84,0.00,,CLR,0.00,VWS V14.01,2013-02-14 14:37:00,
2013-02-14 09:40:00,34.0,29.4,29.76,South,180,6.0,11.9,83,0.00,,CLR,0.00,VWS V14.01,2013-02-14 14:40:00,
2013-02-14 09:42:00,34.0,30.0,29.76,South,180,5.8,7.8,85,0.00,,CLR,0.00,VWS V14.01,2013-02-14 14:42:00,
2013-02-14 09:51:00,34.0,30.0,29.76,SSW,202,5.8,5.8,85,0.00,,CLR,0.00,VWS V14.01,2013-02-14 14:51:00,
2013-02-14 09:53:00,34.2,30.4,29.76,SSW,202,5.4,5.4,86,0.00,,CLR,0.00,VWS V14.01,2013-02-14 14:53:00,
2013-02-14 09:56:00,34.2,30.4,29.76,SSE,158,7.8,7.8,86,0.00,,CLR,0.00,VWS V14.01,2013-02-14 14:56:00,
2013-02-14 09:58:00,34.2,30.4,29.76,SSE,158,6.0,6.0,86,0.00,,CLR,0.00,VWS V14.01,2013-02-14 14:58:00,
2013-02-14 10:00:00,34.2,30.4,29.76,South,180,11.0,11.0,86,0.00,,CLR,0.00,VWS V14.01,2013-02-14 15:00:00,
2013-02-14 10:07:00,34.2,30.4,29.76,South,180,11.0,11.0,86,0.00,,CLR,0.00,VWS V14.01,2013-02-14 15:07:00,
2013-02-14 10:10:00,34.3,30.6,29.76,South,180,6.3,6.3,86,0.00,,CLR,0.00,VWS V14.01,2013-02-14 15:10:00,
2013-02-14 10:12:00,34.3,30.6,29.76,SSW,202,8.7,11.0,86,0.00,,CLR,0.00,VWS V14.01,2013-02-14 15:12:00,
2013-02-14 10:15:00,34.5,30.8,29.76,SSE,158,7.6,7.6,86,0.00,,CLR,0.00,VWS V14.01,2013-02-14 15:15:00,
2013-02-14 10:28:00,34.5,30.8,29.76,South,180,7.4,10.1,86,0.00,,CLR,0.00,VWS V14.01,2013-02-14 15:28:00,
2013-02-14 10:33:00,34.5,30.8,29.74,SSE,158,8.7,10.7,86,0.00,,CLR,0.00,VWS V14.01,2013-02-14 15:33:00,
2013-02-14 10:38:00,34.5,30.8,29.74,SSE,158,9.8,13.6,86,0.00,,CLR,0.00,VWS V14.01,2013-02-14 15:38:00,
2013-02-14 10:43:00,34.7,31.0,29.74,SSE,158,10.5,13.9,86,0.00,,CLR,0.00,VWS V14.01,2013-02-14 15:43:00,
2013-02-14 10:48:00,34.9,31.4,29.71,SSE,158,9.6,13.9,87,0.00,,CLR,0.00,VWS V14.01,2013-02-14 15:48:00,
2013-02-14 10:53:00,35.1,31.6,29.71,South,180,10.3,13.9,87,0.00,,CLR,0.00,VWS V14.01,2013-02-14 15:53:00,
2013-02-14 10:58:00,35.4,31.4,29.71,SSE,158,12.3,13.9,85,0.00,,CLR,0.00,VWS V14.01,2013-02-14 15:58:00,
2013-02-14 11:00:00,35.6,31.0,29.74,SSE,158,14.8,14.8,83,0.00,,CLR,0.00,VWS V14.01,2013-02-14 16:00:00,
2013-02-14 11:03:00,35.6,31.2,29.74,SSE,158,8.5,13.9,84,0.00,,CLR,0.00,VWS V14.01,2013-02-14 16:03:00,
2013-02-14 11:08:00,35.6,31.0,29.74,SSE,158,12.1,14.8,83,0.00,,CLR,0.00,VWS V14.01,2013-02-14 16:08:00,
2013-02-14 11:13:00,35.8,30.8,29.74,SE,135,10.7,14.8,82,0.00,,CLR,0.00,VWS V14.01,2013-02-14 16:13:00,
2013-02-14 11:18:00,36.1,30.9,29.74,SSE,158,9.8,14.8,81,0.00,,CLR,0.00,VWS V14.01,2013-02-14 16:18:00,
2013-02-14 11:23:00,36.3,30.8,29.74,SSE,158,8.7,15.2,80,0.00,,CLR,0.00,VWS V14.01,2013-02-14 16:23:00,
2013-02-14 11:28:00,36.9,31.0,29.74,SSE,158,13.2,15.2,79,0.00,,CLR,0.00,VWS V14.01,2013-02-14 16:28:00,
2013-02-14 11:33:00,37.4,30.5,29.71,South,180,15.2,16.8,76,0.00,,CLR,0.00,VWS V14.01,2013-02-14 16:33:00,
2013-02-14 11:41:00,38.1,30.9,29.71,SSE,158,12.1,12.1,75,0.00,,CLR,0.00,VWS V14.01,2013-02-14 16:41:00,
2013-02-14 11:47:00,38.8,29.9,29.71,SSE,158,12.8,16.6,70,0.00,,CLR,0.00,VWS V14.01,2013-02-14 16:47:00,
2013-02-14 11:52:00,38.8,29.9,29.71,South,180,10.3,16.6,70,0.00,,CLR,0.00,VWS V14.01,2013-02-14 16:52:00,
2013-02-14 11:57:00,38.7,29.4,29.71,SSE,158,11.2,16.6,69,0.00,,CLR,0.00,VWS V14.01,2013-02-14 16:57:00,
2013-02-14 12:00:00,39.6,29.5,29.71,SSE,158,8.7,16.6,67,0.00,,CLR,0.00,VWS V14.01,2013-02-14 17:00:00,
2013-02-14 12:02:00,38.7,29.4,29.71,South,180,9.8,16.6,69,0.00,,CLR,0.00,VWS V14.01,2013-02-14 17:02:00,
2013-02-14 12:03:00,39.9,29.5,29.71,SSW,202,12.5,12.5,66,0.00,,CLR,0.00,VWS V14.01,2013-02-14 17:03:00,
2013-02-14 12:07:00,39.6,29.5,29.71,South,180,12.8,16.6,67,0.00,,CLR,0.00,VWS V14.01,2013-02-14 17:07:00,
2013-02-14 12:08:00,40.6,29.4,29.68,SSW,202,13.6,13.6,64,0.00,,CLR,0.00,VWS V14.01,2013-02-14 17:08:00,
2013-02-14 12:19:00,41.2,29.2,29.68,SSW,202,12.3,13.6,62,0.00,,CLR,0.00,VWS V14.01,2013-02-14 17:19:00,
2013-02-14 12:24:00,42.1,30.0,29.68,SSW,202,9.8,15.4,62,0.00,,CLR,0.00,VWS V14.01,2013-02-14 17:24:00,
2013-02-14 12:29:00,42.8,29.1,29.68,South,180,15.7,17.7,58,0.00,,CLR,0.00,VWS V14.01,2013-02-14 17:29:00,
2013-02-14 12:34:00,41.5,27.9,29.68,SW,225,10.3,26.0,58,0.00,,CLR,0.00,VWS V14.01,2013-02-14 17:34:00,
2013-02-14 12:39:00,40.8,27.6,29.68,SSW,202,17.5,26.0,59,0.00,,CLR,0.00,VWS V14.01,2013-02-14 17:39:00,
2013-02-14 12:44:00,40.6,27.9,29.68,SSW,202,17.7,26.0,60,0.00,,CLR,0.00,VWS V14.01,2013-02-14 17:44:00,
2013-02-14 12:49:00,40.5,28.1,29.68,SW,225,17.5,26.0,61,0.00,,CLR,0.00,VWS V14.01,2013-02-14 17:49:00,
2013-02-14 12:54:00,40.1,28.1,29.68,SSW,202,9.8,26.0,62,0.00,,CLR,0.00,VWS V14.01,2013-02-14 17:54:00,
2013-02-14 12:59:00,39.9,28.8,29.68,SSW,202,8.1,26.0,64,0.00,,CLR,0.00,VWS V14.01,2013-02-14 17:59:00,
2013-02-14 13:00:00,39.0,30.1,29.68,SW,225,12.3,17.0,70,0.00,,CLR,0.00,VWS V14.01,2013-02-14 18:00:00,
2013-02-14 13:04:00,39.9,28.8,29.68,SSW,202,17.7,26.0,64,0.00,,CLR,0.00,VWS V14.01,2013-02-14 18:04:00,
2013-02-14 13:09:00,40.1,29.3,29.68,SW,225,9.8,14.1,65,0.00,,CLR,0.00,VWS V14.01,2013-02-14 18:09:00,
2013-02-14 13:14:00,40.1,29.3,29.68,SSW,202,8.7,14.1,65,0.00,,CLR,0.00,VWS V14.01,2013-02-14 18:14:00,
2013-02-14 13:20:00,40.1,28.9,29.68,SSW,202,10.7,14.1,64,0.00,,CLR,0.00,VWS V14.01,2013-02-14 18:20:00,
2013-02-14 13:25:00,39.9,29.1,29.68,SSW,202,11.0,14.1,65,0.00,,CLR,0.00,VWS V14.01,2013-02-14 18:25:00,
2013-02-14 13:30:00,39.7,29.3,29.68,SW,225,5.8,14.8,66,0.00,,CLR,0.00,VWS V14.01,2013-02-14 18:30:00,
2013-02-14 13:35:00,39.7,29.3,29.68,SSW,202,10.3,17.0,66,0.00,,CLR,0.00,VWS V14.01,2013-02-14 18:35:00,
2013-02-14 13:40:00,39.4,29.4,29.68,SW,225,13.4,17.0,67,0.00,,CLR,0.00,VWS V14.01,2013-02-14 18:40:00,
2013-02-14 13:45:00,39.4,29.4,29.68,SW,225,10.5,17.0,67,0.00,,CLR,0.00,VWS V14.01,2013-02-14 18:45:00,
2013-02-14 13:50:00,39.4,29.7,29.68,SSW,202,13.0,17.0,68,0.00,,CLR,0.00,VWS V14.01,2013-02-14 18:50:00,
2013-02-14 13:55:00,39.2,29.5,29.68,SSW,202,15.2,17.0,68,0.00,,CLR,0.00,VWS V14.01,2013-02-14 18:55:00,
2013-02-14 14:00:00,39.0,29.7,29.68,SW,225,10.5,17.0,69,0.00,,CLR,0.00,VWS V14.01,2013-02-14 19:00:00,
2013-02-14 14:05:00,39.0,30.1,29.68,SW,225,9.8,17.0,70,0.00,,CLR,0.00,VWS V14.01,2013-02-14 19:05:00,
2013-02-14 14:10:00,39.0,30.1,29.68,SW,225,11.0,13.6,70,0.00,,CLR,0.00,VWS V14.01,2013-02-14 19:10:00,
2013-02-14 14:15:00,38.8,30.3,29.68,SW,225,13.0,13.6,71,0.00,,CLR,0.00,VWS V14.01,2013-02-14 19:15:00,
2013-02-14 14:20:00,39.0,30.4,29.68,SW,225,12.8,14.3,71,0.00,,CLR,0.00,VWS V14.01,2013-02-14 19:20:00,
2013-02-14 14:25:00,39.2,29.9,29.68,WSW,248,17.2,17.2,69,0.00,,CLR,0.00,VWS V14.01,2013-02-14 19:25:00,
2013-02-14 14:30:00,39.6,29.5,29.68,SW,225,15.4,17.2,67,0.00,,CLR,0.00,VWS V14.01,2013-02-14 19:30:00,
2013-02-14 14:35:00,39.9,29.1,29.68,SW,225,10.3,17.2,65,0.00,,CLR,0.00,VWS V14.01,2013-02-14 19:35:00,
2013-02-14 14:40:00,39.9,28.8,29.68,SSW,202,13.0,17.2,64,0.00,,CLR,0.00,VWS V14.01,2013-02-14 19:40:00,
2013-02-14 14:45:00,40.1,28.9,29.68,SW,225,9.8,17.2,64,0.00,,CLR,0.00,VWS V14.01,2013-02-14 19:45:00,
2013-02-14 14:50:00,40.1,28.5,29.65,WSW,248,12.8,17.2,63,0.00,,CLR,0.00,VWS V14.01,2013-02-14 19:50:00,
2013-02-14 14:55:00,40.1,28.1,29.65,SW,225,10.7,17.2,62,0.00,,CLR,0.00,VWS V14.01,2013-02-14 19:55:00,
2013-02-14 15:00:00,39.9,28.8,29.65,SW,225,12.5,17.2,64,0.00,,CLR,0.00,VWS V14.01,2013-02-14 20:00:00,
2013-02-14 15:05:00,39.6,28.8,29.65,SW,225,12.3,17.2,65,0.00,,CLR,0.00,VWS V14.01,2013-02-14 20:05:00,
2013-02-14 15:10:00,39.2,29.2,29.65,SW,225,11.0,13.9,67,0.00,,CLR,0.00,VWS V14.01,2013-02-14 20:10:00,
2013-02-14 15:15:00,39.0,29.4,29.65,SW,225,7.8,13.9,68,0.00,,CLR,0.00,VWS V14.01,2013-02-14 20:15:00,
2013-02-14 15:20:00,38.8,29.5,29.68,SW,225,9.8,13.9,69,0.00,,CLR,0.00,VWS V14.01,2013-02-14 20:20:00,
2013-02-14 15:25:00,38.8,29.5,29.68,SW,225,12.1,13.9,69,0.00,,CLR,0.00,VWS V14.01,2013-02-14 20:25:00,
2013-02-14 15:30:00,38.8,29.5,29.68,SW,225,8.7,13.9,69,0.00,,CLR,0.00,VWS V14.01,2013-02-14 20:30:00,
2013-02-14 15:35:00,38.7,29.4,29.68,SW,225,7.8,13.9,69,0.00,,CLR,0.00,VWS V14.01,2013-02-14 20:35:00,
2013-02-14 15:40:00,38.7,29.4,29.68,SW,225,7.8,13.9,69,0.00,,CLR,0.00,VWS V14.01,2013-02-14 20:40:00,
2013-02-14 15:45:00,38.7,29.4,29.65,SW,225,8.5,13.9,69,0.00,,CLR,0.00,VWS V14.01,2013-02-14 20:45:00,
2013-02-14 15:50:00,38.5,29.6,29.65,SW,225,8.7,13.9,70,0.00,,CLR,0.00,VWS V14.01,2013-02-14 20:50:00,
2013-02-14 15:56:00,38.5,29.6,29.65,SW,225,10.3,13.9,70,0.00,,CLR,0.00,VWS V14.01,2013-02-14 20:56:00,
2013-02-14 16:00:00,37.2,29.7,29.68,WSW,248,17.0,18.8,74,0.00,,CLR,0.00,VWS V14.01,2013-02-14 21:00:00,
2013-02-14 16:01:00,38.5,29.9,29.65,SSW,202,10.5,13.9,71,0.00,,CLR,0.00,VWS V14.01,2013-02-14 21:01:00,
2013-02-14 16:06:00,38.5,29.9,29.68,SW,225,10.1,13.9,71,0.00,,CLR,0.00,VWS V14.01,2013-02-14 21:06:00,
2013-02-14 16:11:00,38.5,29.9,29.68,SW,225,8.5,10.3,71,0.00,,CLR,0.00,VWS V14.01,2013-02-14 21:11:00,
2013-02-14 16:16:00,38.1,29.9,29.68,SW,225,8.7,12.1,72,0.00,,CLR,0.00,VWS V14.01,2013-02-14 21:16:00,
2013-02-14 16:21:00,38.1,30.2,29.68,SW,225,8.5,13.2,73,0.00,,CLR,0.00,VWS V14.01,2013-02-14 21:21:00,
2013-02-14 16:26:00,37.6,30.7,29.68,WSW,248,10.5,13.2,76,0.00,,CLR,0.00,VWS V14.01,2013-02-14 21:26:00,
2013-02-14 16:31:00,37.4,31.2,29.68,SW,225,8.7,13.2,78,0.00,,CLR,0.00,VWS V14.01,2013-02-14 21:31:00,
2013-02-14 16:36:00,37.4,31.2,29.68,WSW,248,12.5,13.2,78,0.00,,CLR,0.00,VWS V14.01,2013-02-14 21:36:00,
2013-02-14 16:41:00,37.4,31.2,29.68,SSW,202,11.0,13.2,78,0.00,,CLR,0.00,VWS V14.01,2013-02-14 21:41:00,
2013-02-14 16:46:00,37.4,30.5,29.68,SSW,202,12.8,18.8,76,0.00,,CLR,0.00,VWS V14.01,2013-02-14 21:46:00,
2013-02-14 16:51:00,37.4,29.9,29.68,SW,225,10.5,18.8,74,0.00,,CLR,0.00,VWS V14.01,2013-02-14 21:51:00,
2013-02-14 16:56:00,37.4,30.2,29.68,WSW,248,9.4,18.8,75,0.00,,CLR,0.00,VWS V14.01,2013-02-14 21:56:00,
2013-02-14 17:00:00,36.3,30.1,29.71,WSW,248,12.5,20.4,78,0.00,,CLR,0.00,VWS V14.01,2013-02-14 22:00:00,
2013-02-14 17:01:00,37.2,30.0,29.68,WSW,248,11.4,18.8,75,0.00,,CLR,0.00,VWS V14.01,2013-02-14 22:01:00,
2013-02-14 17:06:00,37.0,29.9,29.68,WSW,248,15.4,18.8,75,0.00,,CLR,0.00,VWS V14.01,2013-02-14 22:06:00,
2013-02-14 17:11:00,37.0,29.5,29.68,SW,225,14.3,17.9,74,0.00,,CLR,0.00,VWS V14.01,2013-02-14 22:11:00,
2013-02-14 17:16:00,37.0,29.5,29.71,SW,225,13.2,17.9,74,0.00,,CLR,0.00,VWS V14.01,2013-02-14 22:16:00,
2013-02-14 17:21:00,37.0,29.5,29.71,WSW,248,12.3,17.9,74,0.00,,CLR,0.00,VWS V14.01,2013-02-14 22:21:00,
2013-02-14 17:26:00,37.0,29.2,29.71,SW,225,14.1,17.9,73,0.00,,CLR,0.00,VWS V14.01,2013-02-14 22:26:00,
2013-02-14 17:31:00,36.9,29.4,29.68,WSW,248,9.8,17.9,74,0.00,,CLR,0.00,VWS V14.01,2013-02-14 22:31:00,
2013-02-14 17:36:00,37.0,29.5,29.68,WSW,248,12.8,17.9,74,0.00,,CLR,0.00,VWS V14.01,2013-02-14 22:36:00,
2013-02-14 17:41:00,37.0,29.5,29.68,SW,225,10.3,17.9,74,0.00,,CLR,0.00,VWS V14.01,2013-02-14 22:41:00,
2013-02-14 17:46:00,36.9,29.7,29.71,WSW,248,10.1,17.9,75,0.00,,CLR,0.00,VWS V14.01,2013-02-14 22:46:00,
2013-02-14 17:51:00,36.7,29.8,29.71,WSW,248,17.5,17.9,76,0.00,,CLR,0.00,VWS V14.01,2013-02-14 22:51:00,
2013-02-14 17:56:00,36.7,29.8,29.71,SW,225,16.8,19.9,76,0.00,,CLR,0.00,VWS V14.01,2013-02-14 22:56:00,
2013-02-14 18:00:00,36.3,29.5,29.74,WSW,248,9.2,23.7,76,0.00,,CLR,0.00,VWS V14.01,2013-02-14 23:00:00,
2013-02-14 18:01:00,36.5,30.0,29.71,WSW,248,12.5,20.4,77,0.00,,CLR,0.00,VWS V14.01,2013-02-14 23:01:00,
2013-02-14 18:06:00,36.3,30.1,29.71,SW,225,15.2,20.4,78,0.00,,CLR,0.00,VWS V14.01,2013-02-14 23:06:00,
2013-02-14 18:11:00,36.5,30.0,29.71,WSW,248,22.6,22.6,77,0.00,,CLR,0.00,VWS V14.01,2013-02-14 23:11:00,
2013-02-14 18:16:00,36.5,30.0,29.71,West,270,8.5,22.6,77,0.00,,CLR,0.00,VWS V14.01,2013-02-14 23:16:00,
2013-02-14 18:21:00,36.3,29.8,29.71,SW,225,13.2,22.6,77,0.00,,CLR,0.00,VWS V14.01,2013-02-14 23:21:00,
2013-02-14 18:26:00,36.7,29.8,29.71,WSW,248,13.0,22.6,76,0.00,,CLR,0.00,VWS V14.01,2013-02-14 23:26:00,
2013-02-14 18:31:00,36.5,30.0,29.74,West,270,15.2,23.7,77,0.00,,CLR,0.00,VWS V14.01,2013-02-14 23:31:00,
2013-02-14 18:36:00,36.3,30.1,29.74,WSW,248,6.3,23.7,78,0.00,,CLR,0.00,VWS V14.01,2013-02-14 23:36:00,
2013-02-14 18:41:00,36.1,30.3,29.74,West,270,15.2,23.7,79,0.00,,CLR,0.00,VWS V14.01,2013-02-14 23:41:00,
2013-02-14 18:46:00,36.1,30.3,29.74,WSW,248,6.3,23.7,79,0.00,,CLR,0.00,VWS V14.01,2013-02-14 23:46:00,
2013-02-14 18:52:00,36.1,30.3,29.74,WSW,248,12.3,23.7,79,0.00,,CLR,0.00,VWS V14.01,2013-02-14 23:52:00,
2013-02-14 18:57:00,36.1,30.0,29.74,WSW,248,12.5,23.7,78,0.00,,CLR,0.00,VWS V14.01,2013-02-14 23:57:00,
2013-02-14 19:00:00,35.4,29.2,29.74,West,270,7.8,21.5,78,0.00,,CLR,0.00,VWS V14.01,2013-02-15 00:00:00,
2013-02-14 19:02:00,36.3,30.1,29.74,West,270,17.2,23.7,78,0.00,,CLR,0.00,VWS V14.01,2013-02-15 00:02:00,
2013-02-14 19:07:00,36.3,29.5,29.74,West,270,10.1,23.7,76,0.00,,CLR,0.00,VWS V14.01,2013-02-15 00:07:00,
2013-02-14 19:12:00,36.3,29.5,29.74,WSW,248,7.8,14.5,76,0.00,,CLR,0.00,VWS V14.01,2013-02-15 00:12:00,
2013-02-14 19:17:00,36.3,29.5,29.74,West,270,10.5,14.5,76,0.00,,CLR,0.00,VWS V14.01,2013-02-15 00:17:00,
2013-02-14 19:22:00,36.5,29.0,29.74,WSW,248,17.0,21.5,74,0.00,,CLR,0.00,VWS V14.01,2013-02-15 00:22:00,
2013-02-14 19:24:00,36.5,29.0,29.74,WSW,248,13.2,21.5,74,0.00,,CLR,0.00,VWS V14.01,2013-02-15 00:24:00,
2013-02-14 19:27:00,36.3,28.8,29.74,SW,225,9.6,21.5,74,0.00,,CLR,0.00,VWS V14.01,2013-02-15 00:27:00,
2013-02-14 19:32:00,36.5,29.0,29.74,WSW,248,13.2,21.5,74,0.00,,CLR,0.00,VWS V14.01,2013-02-15 00:32:00,
2013-02-14 19:37:00,36.5,29.3,29.74,WSW,248,13.2,21.5,75,0.00,,CLR,0.00,VWS V14.01,2013-02-15 00:37:00,
2013-02-14 19:42:00,36.3,29.8,29.74,WSW,248,15.4,21.5,77,0.00,,CLR,0.00,VWS V14.01,2013-02-15 00:42:00,
2013-02-14 19:47:00,36.1,29.6,29.74,SW,225,15.7,21.5,77,0.00,,CLR,0.00,VWS V14.01,2013-02-15 00:47:00,
2013-02-14 19:52:00,35.8,29.6,29.74,WSW,248,10.3,21.5,78,0.00,,CLR,0.00,VWS V14.01,2013-02-15 00:52:00,
2013-02-14 19:57:00,35.6,29.1,29.74,SW,225,7.6,21.5,77,0.00,,CLR,0.00,VWS V14.01,2013-02-15 00:57:00,
2013-02-14 20:00:00,34.7,27.6,29.76,SSW,202,8.1,13.2,75,0.00,,CLR,0.00,VWS V14.01,2013-02-15 01:00:00,
2013-02-14 20:02:00,35.6,29.1,29.74,West,270,12.5,21.5,77,0.00,,CLR,0.00,VWS V14.01,2013-02-15 01:02:00,
2013-02-14 20:07:00,35.4,29.2,29.74,West,270,7.8,21.5,78,0.00,,CLR,0.00,VWS V14.01,2013-02-15 01:07:00,
2013-02-14 20:12:00,35.4,28.9,29.74,SW,225,13.2,13.2,77,0.00,,CLR,0.00,VWS V14.01,2013-02-15 01:12:00,
2013-02-14 20:17:00,35.2,28.5,29.76,SW,225,8.1,13.2,76,0.00,,CLR,0.00,VWS V14.01,2013-02-15 01:17:00,
2013-02-14 20:22:00,35.2,28.5,29.76,NW,315,12.5,13.2,76,0.00,,CLR,0.00,VWS V14.01,2013-02-15 01:22:00,
2013-02-14 20:27:00,35.1,28.3,29.76,West,270,13.0,13.2,76,0.00,,CLR,0.00,VWS V14.01,2013-02-15 01:27:00,
2013-02-14 20:32:00,34.9,28.1,29.76,West,270,8.7,13.2,76,0.00,,CLR,0.00,VWS V14.01,2013-02-15 01:32:00,
2013-02-14 20:37:00,34.9,28.1,29.76,WSW,248,9.0,13.2,76,0.00,,CLR,0.00,VWS V14.01,2013-02-15 01:37:00,
2013-02-14 20:42:00,34.9,28.1,29.76,SW,225,7.6,13.2,76,0.00,,CLR,0.00,VWS V14.01,2013-02-15 01:42:00,
2013-02-14 20:47:00,34.9,27.8,29.76,SW,225,7.6,13.2,75,0.00,,CLR,0.00,VWS V14.01,2013-02-15 01:47:00,
2013-02-14 20:52:00,34.9,27.8,29.76,SW,225,10.1,13.2,75,0.00,,CLR,0.00,VWS V14.01,2013-02-15 01:52:00,
2013-02-14 20:57:00,34.7,27.6,29.76,WSW,248,8.5,13.2,75,0.00,,CLR,0.00,VWS V14.01,2013-02-15 01:57:00,
2013-02-14 21:00:00,33.8,29.5,29.76,West,270,7.6,15.7,84,0.00,,CLR,0.00,VWS V14.01,2013-02-15 02:00:00,
2013-02-14 21:02:00,34.7,27.6,29.76,WSW,248,10.3,13.2,75,0.00,,CLR,0.00,VWS V14.01,2013-02-15 02:02:00,
2013-02-14 21:07:00,34.7,27.6,29.76,SSW,202,8.1,8.1,75,0.00,,CLR,0.00,VWS V14.01,2013-02-15 02:07:00,
2013-02-14 21:12:00,34.7,27.6,29.76,SSW,202,8.1,8.1,75,0.00,,CLR,0.00,VWS V14.01,2013-02-15 02:12:00,
2013-02-14 21:17:00,34.5,27.8,29.76,WSW,248,13.2,13.2,76,0.00,,CLR,0.00,VWS V14.01,2013-02-15 02:17:00,
2013-02-14 21:22:00,34.5,27.8,29.76,West,270,10.7,13.2,76,0.00,,CLR,0.00,VWS V14.01,2013-02-15 02:22:00,
2013-02-14 21:27:00,34.3,27.9,29.76,WSW,248,10.3,13.2,77,0.00,,CLR,0.00,VWS V14.01,2013-02-15 02:27:00,
2013-02-14 21:32:00,34.3,28.2,29.79,WSW,248,11.9,13.2,78,0.00,,CLR,0.00,VWS V14.01,2013-02-15 02:32:00,
2013-02-14 21:37:00,34.2,28.3,29.79,WSW,248,7.6,13.2,79,0.00,,CLR,0.00,VWS V14.01,2013-02-15 02:37:00,
2013-02-14 21:43:00,34.0,28.8,29.79,WNW,292,13.2,15.7,81,0.00,,CLR,0.00,VWS V14.01,2013-02-15 02:43:00,
2013-02-14 21:48:00,34.0,29.1,29.79,WNW,292,13.2,15.7,82,0.00,,CLR,0.00,VWS V14.01,2013-02-15 02:48:00,
2013-02-14 21:53:00,33.8,29.2,29.79,West,270,12.3,15.7,83,0.00,,CLR,0.00,VWS V14.01,2013-02-15 02:53:00,
2013-02-14 21:58:00,33.8,29.2,29.79,West,270,13.2,15.7,83,0.00,,CLR,0.00,VWS V14.01,2013-02-15 02:58:00,
2013-02-14 22:00:00,33.1,27.6,29.85,NW,315,4.9,12.1,80,0.00,,CLR,0.00,VWS V14.01,2013-02-15 03:00:00,
2013-02-14 22:03:00,33.8,29.5,29.76,WSW,248,7.6,15.7,84,0.00,,CLR,0.00,VWS V14.01,2013-02-15 03:03:00,
2013-02-14 22:08:00,33.8,29.5,29.76,West,270,7.6,7.6,84,0.00,,CLR,0.00,VWS V14.01,2013-02-15 03:08:00,
2013-02-14 22:13:00,33.8,29.2,29.76,WNW,292,8.7,8.7,83,0.00,,CLR,0.00,VWS V14.01,2013-02-15 03:13:00,
2013-02-14 22:18:00,33.8,28.9,29.79,WSW,248,8.7,8.7,82,0.00,,CLR,0.00,VWS V14.01,2013-02-15 03:18:00,
2013-02-14 22:23:00,33.6,29.0,29.79,WSW,248,6.0,12.1,83,0.00,,CLR,0.00,VWS V14.01,2013-02-15 03:23:00,
2013-02-14 22:28:00,33.6,29.0,29.79,WSW,248,6.0,12.1,83,0.00,,CLR,0.00,VWS V14.01,2013-02-15 03:28:00,
2013-02-14 22:33:00,33.6,29.0,29.79,WNW,292,8.7,12.1,83,0.00,,CLR,0.00,VWS V14.01,2013-02-15 03:33:00,
2013-02-14 22:38:00,33.6,29.0,29.79,WNW,292,7.6,12.1,83,0.00,,CLR,0.00,VWS V14.01,2013-02-15 03:38:00,
2013-02-14 22:43:00,33.6,29.0,29.79,WNW,292,7.6,12.1,83,0.00,,CLR,0.00,VWS V14.01,2013-02-15 03:43:00,
2013-02-14 22:48:00,33.4,29.1,29.85,WNW,292,7.6,12.1,84,0.00,,CLR,0.00,VWS V14.01,2013-02-15 03:48:00,
2013-02-14 22:53:00,33.3,29.0,29.85,WNW,292,5.8,12.1,84,0.00,,CLR,0.00,VWS V14.01,2013-02-15 03:53:00,
2013-02-14 22:58:00,33.3,29.0,29.85,WNW,292,5.8,12.1,84,0.00,,CLR,0.00,VWS V14.01,2013-02-15 03:58:00,
2013-02-14 23:00:00,30.7,19.6,29.88,NW,315,7.2,15.7,63,0.00,,CLR,0.00,VWS V14.01,2013-02-15 04:00:00,
2013-02-14 23:03:00,33.1,27.6,29.85,NW,315,4.9,12.1,80,0.00,,CLR,0.00,VWS V14.01,2013-02-15 04:03:00,
2013-02-14 23:08:00,33.1,27.6,29.85,West,270,5.8,5.8,80,0.00,,CLR,0.00,VWS V14.01,2013-02-15 04:08:00,
2013-02-14 23:13:00,33.1,27.3,29.85,WNW,292,6.0,6.0,79,0.00,,CLR,0.00,VWS V14.01,2013-02-15 04:13:00,
2013-02-14 23:18:00,32.7,26.0,29.85,WNW,292,7.4,10.7,76,0.00,,CLR,0.00,VWS V14.01,2013-02-15 04:18:00,
2013-02-14 23:23:00,32.5,24.9,29.85,WNW,292,9.8,10.7,73,0.00,,CLR,0.00,VWS V14.01,2013-02-15 04:23:00,
2013-02-14 23:28:00,32.5,25.2,29.85,NW,315,6.0,13.0,74,0.00,,CLR,0.00,VWS V14.01,2013-02-15 04:28:00,
2013-02-14 23:33:00,32.4,24.4,29.85,NW,315,9.6,13.0,72,0.00,,CLR,0.00,VWS V14.01,2013-02-15 04:33:00,
2013-02-14 23:38:00,32.0,23.3,29.85,NW,315,13.2,13.2,70,0.00,,CLR,0.00,VWS V14.01,2013-02-15 04:38:00,
2013-02-14 23:43:00,31.6,22.0,29.85,SSW,202,9.8,13.2,67,0.00,,CLR,0.00,VWS V14.01,2013-02-15 04:43:00,
2013-02-14 23:49:00,31.5,21.4,29.88,NW,315,15.7,15.7,66,0.00,,CLR,0.00,VWS V14.01,2013-02-15 04:49:00,
2013-02-14 23:54:00,31.1,20.7,29.88,WNW,292,10.7,15.7,65,0.00,,CLR,0.00,VWS V14.01,2013-02-15 04:54:00,
2013-02-14 23:59:00,31.1,20.0,29.88,WNW,292,8.5,15.7,63,0.00,,CLR,0.00,VWS V14.01,2013-02-15 04:59:00,